Waarnemingen

Advertentie
Mijn weer
Mont-De-Marsan, Frankrijk (7607): temperatuur & dauwpunt: 19.04.2018 14:00:00 - 25.04.2018 14:00:00 (CEST)Mont-De-Marsan, Frankrijk (7607): temperatuur 5cm: 19.04.2018 14:00:00 - 25.04.2018 14:00:00 (CEST)Mont-De-Marsan, Frankrijk (7607): temperatuur -20cm & temperatuur -100cm: 19.04.2018 14:00:00 - 25.04.2018 14:00:00 (CEST)Mont-De-Marsan, Frankrijk (7607): windsnelheid & windstoten: 19.04.2018 14:00:00 - 25.04.2018 14:00:00 (CEST)Mont-De-Marsan, Frankrijk (7607): windrichting: 19.04.2018 14:00:00 - 25.04.2018 14:00:00 (CEST)Mont-De-Marsan, Frankrijk (7607): luchtdruk: 19.04.2018 14:00:00 - 25.04.2018 14:00:00 (CEST)Mont-De-Marsan, Frankrijk (7607): zicht: 19.04.2018 14:00:00 - 25.04.2018 14:00:00 (CEST)Mont-De-Marsan, Frankrijk (7607): Zonneschijnduur: 19.04.2018 14:00:00 - 25.04.2018 14:00:00 (CEST)Mont-De-Marsan, Frankrijk (7607): neerslag: 19.04.2018 14:00:00 - 25.04.2018 14:00:00 (CEST)
Datum & Tijd tt [°C] td [°C] tt 5cm [°C] tt -20cm [°C] tt -100cm [°C] ff [km/u] ff [kn] fx [km/u] fx [kn] dd ppp [hPa] vv [km] sd [min] rr [mm]
25.04.2018 14:00:00 - - - - - - - - - - - - - -
25.04.2018 13:00:00 14,9 11,5 17,1 17,6 14,6 11 6 18 10 W 1023,1 57 0 0,0
25.04.2018 12:00:00 13,9 12,1 14,8 17,7 14,6 10 6 16 9 NNW 1023,4 7 0 0,0
25.04.2018 11:00:00 13,5 12,2 14,4 17,8 14,6 7 4 12 7 NNW 1023,2 6 0 0,0
25.04.2018 10:00:00 13,3 12,0 12,8 17,9 14,5 6 3 15 8 WNW 1022,8 20 0 0,0
25.04.2018 09:00:00 12,9 12,0 12,7 18,0 14,5 8 4 16 9 NW 1022,0 7 0 0,0
25.04.2018 08:00:00 13,2 11,9 12,7 18,1 14,5 7 4 15 8 WNW 1021,2 18 0 0,0
25.04.2018 07:00:00 13,0 12,5 12,7 18,3 14,5 8 4 14 8 W 1020,5 8 0 0,0
25.04.2018 06:00:00 13,0 12,5 12,6 18,4 14,5 7 4 10 5 W 1020,2 3,0 0 0,0
25.04.2018 05:00:00 12,9 12,1 12,6 18,6 14,5 4 2 9 5 W 1019,8 3,0 0 0,0
25.04.2018 04:00:00 13,3 11,7 13,0 18,7 14,5 7 4 23 13 NW 1019,7 11 0 0,0
25.04.2018 03:00:00 13,3 11,5 12,8 18,9 14,5 14 8 31 17 NW 1019,8 20 0 0,0
25.04.2018 02:00:00 13,3 11,9 12,4 19,0 14,5 14 7 26 14 WNW 1019,6 14 0 0,0
25.04.2018 01:00:00 14,7 12,4 13,8 19,1 14,4 20 11 31 17 W 1019,0 14 0 0,0
25.04.2018 00:00:00 18,0 14,7 13,8 19,2 14,4 20 11 29 15 W 1018,1 19 0 0,0
24.04.2018 23:00:00 18,5 14,4 12,0 19,3 14,4 7 4 11 6 NW 1017,3 34 0 0,0
24.04.2018 22:00:00 20,9 14,5 14,3 19,2 14,4 0 0 6 3 N 1016,6 32 0 0,0
24.04.2018 21:00:00 24,1 14,2 20,2 19,1 14,4 5 3 12 7 Z 1016,0 20 30 0,0
24.04.2018 20:00:00 25,6 13,8 25,4 18,9 14,4 5 3 10 6 ZZO 1015,7 20 60 0,0
24.04.2018 19:00:00 26,8 14,2 30,0 18,7 14,4 4 2 12 6 O 1015,9 19 60 0,0
24.04.2018 18:00:00 26,8 13,9 32,6 18,4 14,4 6 3 20 11 OZO 1016,2 20 60 0,0
24.04.2018 17:00:00 26,6 14,0 33,6 18,1 14,4 5 3 17 9 O 1016,8 20 60 0,0
24.04.2018 16:00:00 26,4 13,8 31,9 17,7 14,4 7 4 20 11 OZO 1017,6 19 60 0,0
24.04.2018 15:00:00 25,0 14,2 32,5 17,4 14,4 7 4 19 10 ZO 1018,4 18 60 0,0
24.04.2018 14:00:00 23,3 14,0 30,6 17,2 14,4 6 4 21 11 ONO 1019,2 20 60 0,0
24.04.2018 13:00:00 22,5 15,1 27,5 17,0 14,3 10 5 26 14 O 1020,0 18 56 0,0
24.04.2018 12:00:00 21,4 14,3 26,5 17,0 14,4 8 5 21 12 O 1020,5 16 58 0,0
24.04.2018 11:00:00 19,8 14,4 21,8 16,9 14,3 10 6 21 11 O 1020,8 13 55 0,0
24.04.2018 10:00:00 17,1 13,6 17,2 17,0 14,3 8 4 12 7 O 1021,0 18 9 0,0
24.04.2018 09:00:00 15,1 13,0 14,8 17,1 14,3 5 3 8 4 NNO 1021,3 20 0 0,0
24.04.2018 08:00:00 14,5 12,7 14,1 17,1 14,3 2 1 5 3 N 1021,0 19 0 0,4
24.04.2018 07:00:00 14,4 12,6 14,0 17,2 14,3 4 2 6 4 N 1020,5 20 0 0,0
24.04.2018 06:00:00 14,5 12,7 14,1 17,3 14,3 4 2 6 4 N 1020,4 18 0 0,0
24.04.2018 05:00:00 14,7 12,7 14,3 17,4 14,3 4 2 8 4 NNO 1020,8 17 0 0,0
24.04.2018 04:00:00 15,0 12,9 14,5 17,5 14,3 4 2 9 5 ONO 1021,0 17 0 0,0
24.04.2018 03:00:00 15,1 13,1 14,5 17,6 14,3 3 1 6 3 N 1021,4 13 0 0,0
24.04.2018 02:00:00 15,1 13,3 13,9 17,7 14,3 0 0 4 2 N 1021,6 11 0 0,0
24.04.2018 01:00:00 14,8 13,3 12,4 17,8 14,3 0 0 10 5 N 1021,9 11 0 0,0
24.04.2018 00:00:00 15,4 13,4 13,9 17,8 14,2 5 3 9 5 N 1021,8 13 0 0,0
23.04.2018 23:00:00 16,1 13,6 14,3 17,8 14,2 5 3 14 8 N 1021,9 13 0 0,0
23.04.2018 22:00:00 17,3 13,8 16,4 17,8 14,2 6 3 10 5 N 1021,4 19 0 0,0
23.04.2018 21:00:00 18,0 13,7 17,0 17,8 14,2 8 4 16 9 N 1020,5 20 0 0,0
23.04.2018 20:00:00 19,0 14,3 19,1 17,7 14,2 9 5 16 9 N 1020,3 19 3 0,0
23.04.2018 19:00:00 19,9 14,5 21,2 17,6 14,2 8 4 13 7 NW 1020,2 19 21 0,0
23.04.2018 18:00:00 20,0 14,1 22,0 17,4 14,2 8 4 15 8 N 1020,4 19 17 0,0
23.04.2018 17:00:00 19,5 13,9 21,4 17,3 14,2 8 5 17 9 NW 1020,7 15 0 0,0
23.04.2018 16:00:00 19,5 14,3 23,0 17,2 14,2 7 4 15 8 NNW 1021,0 18 16 0,0
23.04.2018 15:00:00 18,9 14,0 22,5 17,1 14,1 8 4 14 8 N 1021,5 18 12 0,0
23.04.2018 14:00:00 17,4 13,9 19,5 17,1 14,1 5 3 20 11 WNW 1021,9 18 0 0,0
23.04.2018 13:00:00 16,6 13,5 17,4 17,1 14,1 5 3 16 8 ZZW 1022,2 12 0 0,0
23.04.2018 12:00:00 15,9 13,7 16,5 17,1 14,1 6 3 10 5 W 1022,4 14 0 0,0
23.04.2018 11:00:00 15,6 13,6 14,9 17,1 14,1 4 2 15 8 WNW 1022,1 17 0 0,0
23.04.2018 10:00:00 15,3 13,7 15,4 17,2 14,1 7 4 11 6 WNW 1021,7 10 0 0,0
23.04.2018 09:00:00 14,8 13,8 14,4 17,3 14,1 6 4 8 5 W 1021,2 3,4 0 0,0
23.04.2018 08:00:00 14,4 13,9 13,8 17,4 14,0 0 0 5 3 N 1020,8 4,4 0 0,0
23.04.2018 07:00:00 13,9 13,6 13,5 17,6 14,0 2 1 13 7 W 1020,2 3,1 0 0,2
23.04.2018 06:00:00 13,7 13,5 10,8 17,7 14,0 9 5 13 7 W 1019,8 0,3 0 0,0
23.04.2018 05:00:00 13,6 13,1 12,1 17,9 14,0 8 4 16 9 W 1019,8 4,1 0 0,0
23.04.2018 04:00:00 14,6 13,8 13,0 18,0 14,0 6 3 9 5 Z 1019,2 11 0 0,0
23.04.2018 03:00:00 14,3 13,3 13,5 18,1 13,9 8 5 13 7 W 1019,3 12 0 0,0
23.04.2018 02:00:00 14,8 13,7 12,6 18,2 14,0 7 4 11 6 W 1019,4 13 0 0,0
23.04.2018 01:00:00 14,7 13,6 13,7 18,3 13,9 11 6 27 15 NNW 1018,5 13 0 1,0
23.04.2018 00:00:00 16,2 13,9 14,2 18,4 13,9 17 9 36 19 W 1020,2 16 0 0,0
22.04.2018 23:00:00 18,9 12,4 16,6 18,5 13,9 12 7 20 11 WNW 1018,2 42 0 0,0
22.04.2018 22:00:00 19,1 12,1 14,1 18,5 13,9 8 4 11 6 W 1017,2 31 0 0,0
22.04.2018 21:00:00 21,1 11,1 17,5 18,4 13,9 6 3 13 7 NW 1015,5 49 0 0,0
22.04.2018 20:00:00 22,5 11,2 20,2 18,3 13,9 5 3 11 6 NW 1015,1 49 0 0,0
22.04.2018 19:00:00 23,6 10,6 22,9 18,2 13,9 9 5 17 9 WNW 1015,1 49 0 0,0
22.04.2018 18:00:00 24,3 10,9 24,1 17,9 13,8 10 5 22 12 WNW 1014,8 20 12 0,0
22.04.2018 17:00:00 25,2 11,4 27,4 17,7 13,9 10 5 24 13 WNW 1014,7 20 28 0,0
22.04.2018 16:00:00 25,7 11,5 27,3 17,4 13,8 15 8 24 13 W 1015,3 20 25 0,0
22.04.2018 15:00:00 26,7 11,2 30,0 17,1 13,8 10 5 24 13 ZW 1015,7 20 54 0,0
22.04.2018 14:00:00 25,6 9,4 31,7 16,9 13,8 11 6 23 13 WZW 1016,0 19 60 0,0
22.04.2018 13:00:00 24,7 9,0 29,8 16,8 13,8 11 6 24 13 ZW 1016,4 53 60 0,0
22.04.2018 12:00:00 23,8 10,1 28,2 16,8 13,8 11 6 19 11 WZW 1016,7 49 60 0,0
22.04.2018 11:00:00 20,8 13,7 22,3 16,9 13,8 4 2 9 5 Z 1016,8 16 28 0,0
22.04.2018 10:00:00 16,8 13,9 15,8 17,0 13,8 2 1 7 4 O 1016,6 16 0 0,0
22.04.2018 09:00:00 14,3 13,0 12,6 17,1 13,7 5 3 6 4 O 1016,3 17 0 0,0
22.04.2018 08:00:00 12,9 12,0 11,6 17,2 13,7 5 3 9 5 O 1016,1 15 0 0,0
22.04.2018 07:00:00 13,1 11,8 11,3 17,4 13,7 7 4 9 5 ONO 1015,5 17 0 0,0
22.04.2018 06:00:00 13,3 11,9 10,9 17,5 13,7 5 3 6 3 ONO 1015,5 18 0 0,0
22.04.2018 05:00:00 13,6 11,6 10,8 17,7 13,7 2 1 5 3 O 1015,6 20 0 0,0
22.04.2018 04:00:00 14,3 12,0 10,5 17,8 13,7 5 3 6 3 O 1015,4 25 0 0,0
22.04.2018 03:00:00 14,8 12,3 10,9 18,0 13,7 2 1 6 3 NW 1015,7 32 0 0,0
22.04.2018 02:00:00 15,4 12,2 11,8 18,1 13,7 3 2 5 3 ONO 1015,9 33 0 0,0
22.04.2018 01:00:00 17,3 12,4 11,6 18,3 13,6 2 1 6 3 Z 1016,1 43 0 0,0
22.04.2018 00:00:00 17,9 12,6 12,1 18,3 13,6 4 2 5 3 NNW 1015,7 53 0 0,0
21.04.2018 23:00:00 18,2 12,2 13,5 18,4 13,6 5 3 7 4 O 1015,6 58 0 0,0
21.04.2018 22:00:00 21,1 11,7 13,6 18,3 13,6 3 1 5 3 O 1015,6 60 0 0,0
21.04.2018 21:00:00 22,9 11,3 16,1 18,2 13,6 4 2 9 5 OZO 1015,1 60 7 0,0
21.04.2018 20:00:00 26,4 9,7 24,0 18,1 13,6 4 2 11 6 ZZW 1015,1 57 12 0,0
21.04.2018 19:00:00 27,4 8,8 27,8 17,8 13,6 7 4 18 10 ZZO 1015,0 20 53 0,0
21.04.2018 18:00:00 28,4 8,6 33,3 17,4 13,6 5 3 15 8 ZZW 1015,0 20 60 0,0
21.04.2018 17:00:00 28,3 9,6 35,1 17,0 13,6 5 3 19 10 WZW 1015,4 60 60 0,0
21.04.2018 16:00:00 27,8 10,9 34,7 16,7 13,5 8 5 19 10 Z 1016,0 19 60 0,0
21.04.2018 15:00:00 26,9 11,4 33,3 16,3 13,5 7 4 14 8 W 1016,8 60 60 0,0
21.04.2018 14:00:00 25,7 11,1 32,7 16,1 13,5 3 1 14 7 O 1017,0 60 60 0,0
21.04.2018 13:00:00 24,3 11,9 32,0 16,0 13,5 8 4 16 9 N 1017,9 19 60 0,0
21.04.2018 12:00:00 22,6 11,3 28,4 16,0 13,5 4 2 9 5 ZZW 1018,6 19 60 0,0
21.04.2018 11:00:00 20,7 12,1 24,4 16,0 13,5 0 0 9 5 N 1018,9 16 60 0,0
21.04.2018 10:00:00 17,3 10,9 18,6 16,2 13,5 7 4 10 5 OZO 1019,1 20 60 0,0
21.04.2018 09:00:00 13,3 10,3 10,6 16,3 13,5 6 3 9 5 ONO 1019,4 20 60 0,0
21.04.2018 08:00:00 9,7 8,9 4,6 16,5 13,4 0 0 5 3 N 1019,4 16 26 0,0
21.04.2018 07:00:00 8,9 7,3 5,5 16,7 13,4 5 3 7 4 ONO 1018,9 18 0 0,0
21.04.2018 06:00:00 9,8 9,0 6,9 16,9 13,4 4 2 10 5 O 1018,9 14 0 0,0
21.04.2018 05:00:00 9,9 8,5 5,4 17,1 13,4 6 3 8 5 ONO 1019,2 16 0 0,0
21.04.2018 04:00:00 11,4 9,8 5,8 17,3 13,4 0 0 4 2 N 1019,5 18 0 0,0
21.04.2018 03:00:00 12,7 10,9 6,8 17,4 13,4 0 0 9 5 N 1019,6 30 0 0,0
21.04.2018 02:00:00 13,4 10,9 8,5 17,6 13,4 4 2 10 5 O 1020,0 33 0 0,0
21.04.2018 01:00:00 13,9 10,5 8,8 17,7 13,4 4 2 6 3 ONO 1020,0 39 0 0,0
21.04.2018 00:00:00 18,2 11,0 10,2 17,8 13,3 2 1 12 6 WZW 1020,1 48 0 0,0
20.04.2018 23:00:00 20,0 12,0 11,3 17,9 13,3 9 5 16 9 ZW 1020,3 38 0 0,0
20.04.2018 22:00:00 18,3 12,1 12,1 17,8 13,3 2 1 4 2 ONO 1019,8 60 0 0,0
20.04.2018 21:00:00 23,5 10,5 15,8 17,8 13,3 2 1 18 10 Z 1019,2 16 25 0,0
20.04.2018 20:00:00 25,1 10,9 24,3 17,6 13,3 9 5 20 11 ZO 1018,6 18 60 0,0
20.04.2018 19:00:00 25,9 10,9 29,0 17,3 13,3 11 6 24 13 ZO 1018,6 60 60 0,0
20.04.2018 18:00:00 25,9 12,0 29,9 17,0 13,3 13 7 22 12 O 1018,6 60 60 0,0
20.04.2018 17:00:00 26,0 11,7 31,6 16,6 13,3 13 7 23 12 O 1018,9 18 60 0,0
20.04.2018 16:00:00 25,1 11,6 31,6 16,2 13,3 13 7 22 12 ZO 1019,5 20 60 0,0
20.04.2018 15:00:00 25,0 10,8 31,3 15,9 13,2 11 6 23 12 O 1020,1 18 60 0,0
20.04.2018 14:00:00 24,2 10,1 31,2 15,7 13,2 10 5 20 11 O 1020,7 19 60 0,0
20.04.2018 13:00:00 23,6 9,9 31,6 15,5 13,2 11 6 22 12 NNO 1021,4 18 60 0,0
20.04.2018 12:00:00 22,1 9,3 28,1 15,5 13,2 8 4 15 8 NO 1021,7 18 60 0,0
20.04.2018 11:00:00 20,3 8,6 24,8 15,5 13,2 5 3 12 6 O 1021,9 60 60 0,0
20.04.2018 10:00:00 18,0 9,3 20,0 15,7 13,2 7 4 12 7 OZO 1021,8 16 60 0,0
20.04.2018 09:00:00 14,4 8,8 10,7 15,8 13,2 3 2 5 3 O 1022,0 19 60 0,0
20.04.2018 08:00:00 10,0 7,4 6,0 16,0 13,2 4 2 6 3 ONO 1021,8 43 25 0,0
20.04.2018 07:00:00 9,7 6,4 6,0 16,2 13,1 5 3 8 4 ONO 1021,5 58 0 0,0
20.04.2018 06:00:00 10,4 6,7 6,0 16,4 13,1 4 2 8 4 NO 1021,4 60 0 0,0
20.04.2018 05:00:00 11,5 6,8 6,2 16,6 13,1 8 4 10 5 ONO 1021,6 60 0 0,0
20.04.2018 04:00:00 12,6 6,8 6,2 16,8 13,1 9 5 10 6 ONO 1021,4 20 0 0,0
20.04.2018 03:00:00 13,4 7,2 6,7 16,9 13,1 5 3 8 4 ONO 1021,5 60 0 0,0
20.04.2018 02:00:00 15,2 7,5 8,2 17,1 13,1 4 2 14 8 O 1021,6 60 0 0,0
20.04.2018 01:00:00 14,6 8,1 11,3 17,2 13,1 9 5 13 7 O 1021,5 60 0 0,0
20.04.2018 00:00:00 16,3 8,3 12,3 17,3 13,0 10 5 13 7 ONO 1021,5 60 0 0,0
19.04.2018 23:00:00 17,9 9,0 15,1 17,3 13,0 10 6 17 9 O 1021,5 20 0 0,0
19.04.2018 22:00:00 19,7 9,6 16,8 17,3 13,0 11 6 27 15 O 1021,3 60 0 0,0
19.04.2018 21:00:00 22,7 10,2 20,8 17,2 13,0 16 9 31 17 O 1020,7 60 24 0,0
19.04.2018 20:00:00 25,0 10,8 24,1 17,0 13,0 19 11 37 20 O 1020,2 52 60 0,0
19.04.2018 19:00:00 26,4 11,3 28,5 16,8 13,0 13 7 26 14 OZO 1020,1 60 60 0,0
19.04.2018 18:00:00 26,5 11,0 30,6 16,4 13,0 11 6 29 16 O 1020,3 60 60 0,0
19.04.2018 17:00:00 26,7 10,4 32,2 16,0 12,9 10 6 25 14 ONO 1020,5 60 60 0,0
19.04.2018 16:00:00 26,7 11,6 31,7 15,6 13,0 15 8 28 15 ONO 1021,0 20 60 0,0
19.04.2018 15:00:00 26,1 11,8 31,2 15,3 13,0 16 9 32 18 O 1021,7 20 60 0,0
19.04.2018 14:00:00 25,9 12,7 32,0 15,1 13,0 14 8 27 15 O 1022,0 19 60 0,0

tt = temperatuur
td = dauwpunt
tt 5cm = temperatuur 5cm
tt -20cm = temperatuur -20cm
tt -100cm = temperatuur -100cm
ff = windsnelheid
fx = windstoten
dd = windrichting
ppp = luchtdruk
vv = zicht
sd = Zonneschijnduur
rr = neerslag

Weerstations in de omgeving